[Iaude] MPEC F104: 2018 JT6 [a=53.26,e=0.20,i=26.8,H=6.8]

mpec at mpcdb1.cfa.harvard.edu mpec at mpcdb1.cfa.harvard.edu
Tue Mar 26 22:15:16 EDT 2019


M.P.E.C. 2019-F104                               Issued 2019 Mar. 27, 02:12 UT
 
     The Minor Planet Electronic Circulars contain information on unusual
         minor planets and routine data on comets.  They are published
    on behalf of Division F of the International Astronomical Union by the
          Minor Planet Center, Smithsonian Astrophysical Observatory,
                          Cambridge, MA 02138, U.S.A.

             Prepared using the Tamkin Foundation Computer Network

                              MPC at CFA.HARVARD.EDU
            URL https://www.minorplanetcenter.net/    ISSN 1523-6714


                                   2018 JT6
 
Observations:
     K18J06T*.C2018 05 10.96897 11 54 25.873-12 47 23.15         24.6 rVEF104807
     K18J06T .C2018 05 11.96567 11 54 24.059-12 46 58.76         24.4 rVEF104807
     K18J06T  C2019 02 28.16680 12 00 48.082-13 16 04.05         24.6 rVEF104304
     K18J06T  C2019 02 28.21810 12 00 47.930-13 16 03.19         24.7 rVEF104304
     K18J06T  C2019 03 01.34118 12 00 44.521-13 15 44.63         24.6 rVEF104304
 
Observer details:
304 Las Campanas Observatory.  Observer S. S. Sheppard.  6.5-m Magellan-Baade
    telescope + CCD.
807 Cerro Tololo Observatory, La Serena.  Observers S. S. Sheppard,
    C. A. Trujillo.  4.0-m CTIO reflector + CCD.
 
Orbital elements:
2018 JT6
Epoch 2019 Apr. 27.0 TT = JDT 2458600.5                 MPC
M 232.60069              (2000.0)            P               Q
n   0.00253546     Peri.  115.76649     +0.77633811     +0.58921266
a  53.2636558      Node   209.76063     -0.60377940     +0.79714020
e   0.1978306      Incl.   26.81117     +0.18096846     +0.13189364
P 389              H    6.8           G   0.15           U   6
Residuals in seconds of arc
180510 807  0.0   0.1+    190228 304  0.0   0.0     190301 304  0.0   0.1-
180511 807  0.1+  0.1-    190228 304  0.1+  0.0

Ephemeris:
2018 JT6                 a,e,i = 53.26, 0.20, 27                 q = 42.726
Date    TT    R. A. (2000) Decl.     Delta      r     Elong.  Phase     V
2019 02 25    12 00 57.5 -13 16 54  59.9368 60.7792   148.1     0.5    24.7
...
2019 03 12    12 00 11.1 -13 12 26  59.8336 60.7750   161.2     0.3    24.7
...
2019 03 20    11 59 45.1 -13 09 33  59.8048 60.7727   166.3     0.2    24.7
...
2019 03 26    11 59 25.6 -13 07 13  59.7954 60.7709   167.9     0.2    24.7
2019 03 27    11 59 22.4 -13 06 49  59.7948 60.7707   167.9     0.2    24.7
2019 03 28    11 59 19.1 -13 06 25  59.7946 60.7704   167.8     0.2    24.7
...
2019 04 03    11 58 59.9 -13 03 56  59.7993 60.7686   165.7     0.2    24.7
...
2019 04 11    11 58 35.1 -13 00 30  59.8219 60.7664   160.3     0.3    24.7
...
2019 04 26    11 57 53.1 -12 53 53  59.9118 60.7620   147.4     0.5    24.7

A. U. Tomatic                (C) Copyright 2019 MPC           M.P.E.C. 2019-F104



More information about the Iaude mailing list